STARLINK-1860 (47147 NORAD) Tracking and Keplerian Element Data
This shows tracking and keplerian element data for the satellite.
Feedback or suggestion? Click here.
Element | Value |
Catalog | 47147 |
Name | STARLINK-1860 |
Epoch Orbit | 1570 |
Epoch Day | 60.91667824 |
Epoch Year | 2021 |
RAAN | 253.7215 |
Inclination | 53.0541 |
Eccentricity | 0.0002228 |
Argument of Perigee | 103.6832 |
Mean Anonmoly | 182.2744 |
Mean Motion | 15.06365933 |
Decay Rate | 0.00029106 |
L1 | 1 47147U 20088AB 21060.91667824 .00029106 00000-0 19666-2 0 9991 |
L2 | 2 47147 53.0541 253.7215 0002228 103.6832 182.2744 15.06365933 15707 |
Live tracking and technical data element details for STARLINK-1860 (NORAD 47147). STARLINK-1860 can be tracked NOW for your location showing map with azimuth and elevation plus other details from your city location.
Track the satellite on the map from your city or location and see movement details for azimuth, elevation, latitude, longitude, range, height, and movement on the map or in text.
IsCatalogInMostPopularTable: catalog: 47147, numindb: 31
Update: records affected: 1
GetName: 47147 STARLINK-1860
Hit Count: updated at: Tue, 02 Mar 2021 13:26:19 GMT